Weather in Yanovo

Russia / Altai Krai     53°53′59″N   85°12′55″E
temp.,
°C
wind,
m/s
gust,
m/s
humid.,
%
clouds,
%
prec.,
mm/h
press.,
hPa
HPBL,
m
9 march, tue
tue901:00−1wsw71294100 1.3 10151017
04:00−10w41093100 0.6 1022493
07:00−12sw41096100 0.7 1027464
10:00−11sw51093100 0.1 1029565
13:00−9sw488899 0.1 1030566
16:00−7ssw488696 0.0 1028672
19:00−10s239369 0.0 102753
22:00−12s2796100 0.0 1027160
10 march, wed
wed1001:00−14s2293100 0.0 102425
04:00−12sse1294100 0.0 102323
07:00−11sse2396100 0.1 102272
10:00−7ssw3796100 0.1 1021317
13:00−2sw4991100 0.2 1019781
16:000s4794100 0.1 1016563
19:00−2se3994100 0.1 1012277
22:00−1se41291100 0.0 1009307
11 march, thu
thu1101:00−1sse51482100 0.0 1006352
04:000ssw71597100 0.5 1005936
07:00+1sw71499100 2.5 1008968
10:00−5wsw61385100 0.3 1012669
13:00−6sw51088100 0.3 1016660
16:00−4sw61089100 0.1 1019936
19:00−5sw41091100 0.3 1020696
22:00−9s399574 0.0 1021245
12 march, fri
fri1201:00−8sse4119483 0.0 1017316
04:00−5s61688100 0.1 1014899
07:00−5wsw61493100 1.7 10151231
10:00−8wsw61382100 0.4 10181113
13:00−9wsw7127450 0.4 10201120
16:00−9wsw6107829 0.0 10211039
19:00−12sw498865 0.0 1021605
22:00−17sw2396100 0.0 102237
13 march, sat
sat1301:00−19sw1210096 0.0 102120
04:00−21sw1210095 0.0 102120
07:00−21wsw269997 0.1 1023190
10:00−19w4893100 0.1 1026515
13:00−16w5887100 0.2 1029874
16:00−15wsw5983100 0.1 1031916
19:00−17sw4990100 0.1 1034548
22:00−21sw3109655 0.0 1036278